#�ϑ�����,���ϕ���,���ϕ���,�ő啗��,�ő啗����������,�ő�u�ԕ���,�ő�u�ԕ�����������
#(�N����),(m/s)   ,(16����),(m/s)   ,(16����)        ,(m/s)       ,(16����)            
2015/7/17 0:01,7.5,3,7.6,2,13.5,3
2015/7/17 0:02,7.6,3,7.6,3,10.1,3
2015/7/17 0:03,7.3,3,7.6,3,8.7,3
2015/7/17 0:04,7.3,3,7.5,3,14.3,3
2015/7/17 0:05,7.6,3,7.6,3,13.3,3
2015/7/17 0:06,7.1,3,7.5,3,10,2
2015/7/17 0:07,7.1,3,7.2,3,10.1,2
2015/7/17 0:08,6.9,3,7,3,10.3,3
2015/7/17 0:09,6.8,3,6.9,3,11.7,3
2015/7/17 0:10,6.9,3,6.9,3,11.1,2
2015/7/17 0:11,6.9,3,6.9,3,14.1,4
2015/7/17 0:12,6.9,3,7,3,11.3,4
2015/7/17 0:13,7,3,7.1,3,12.1,3
2015/7/17 0:14,7,3,7.1,3,10.8,2
2015/7/17 0:15,6.8,3,7,3,11.6,4
2015/7/17 0:16,7.2,3,7.2,3,14.7,3
2015/7/17 0:17,7.3,3,7.3,3,13,2
2015/7/17 0:18,7.2,3,7.3,3,12.1,4
2015/7/17 0:19,7,3,7.2,3,10,3
2015/7/17 0:20,7.2,3,7.2,3,14.3,2
2015/7/17 0:21,7.4,3,7.4,3,16.1,3
2015/7/17 0:22,7.4,3,7.4,3,12.3,2
2015/7/17 0:23,7.3,3,7.4,3,11.3,5
2015/7/17 0:24,7.5,3,7.5,3,11.6,4
2015/7/17 0:25,7.4,3,7.5,3,8.6,1
2015/7/17 0:26,7.2,3,7.3,3,9.7,3
2015/7/17 0:27,7.3,3,7.3,3,14.9,3
2015/7/17 0:28,7.3,3,7.4,3,11.8,3
2015/7/17 0:29,7.6,3,7.6,3,13.6,3
2015/7/17 0:30,7.5,3,7.7,3,12.4,3
2015/7/17 0:31,7.3,3,7.5,3,14.5,3
2015/7/17 0:32,7.7,3,7.7,3,14.2,3
2015/7/17 0:33,7.7,3,7.8,3,9.8,3
2015/7/17 0:34,7.6,3,7.6,3,14.3,2
2015/7/17 0:35,7.8,3,7.8,3,14.9,3
2015/7/17 0:36,7.9,3,7.9,3,12.1,3
2015/7/17 0:37,7.8,3,8,3,11.8,3
2015/7/17 0:38,7.9,3,7.9,3,14.1,3
2015/7/17 0:39,7.8,3,8,3,12.4,3
2015/7/17 0:40,7.8,3,7.8,3,13.4,3
2015/7/17 0:41,7.9,3,7.9,3,14.3,3
2015/7/17 0:42,7.5,3,7.8,3,12.1,4
2015/7/17 0:43,7.7,2,7.7,3,12.5,2
2015/7/17 0:44,8,2,8,3,14.5,2
2015/7/17 0:45,8.1,2,8.1,2,14.4,3
2015/7/17 0:46,8.2,2,8.2,2,11.3,3
2015/7/17 0:47,8.1,3,8.2,2,12.2,3
2015/7/17 0:48,7.7,3,8,2,9.8,3
2015/7/17 0:49,7.6,3,7.7,2,12.5,3
2015/7/17 0:50,7.4,3,7.6,2,12.3,2
2015/7/17 0:51,7.2,3,7.4,2,13.5,3
2015/7/17 0:52,7.2,2,7.2,2,14.1,2
2015/7/17 0:53,7.3,3,7.3,2,11.5,2
2015/7/17 0:54,6.9,3,7.3,2,9.3,3
2015/7/17 0:55,6.7,3,6.9,2,10.7,3
2015/7/17 0:56,6.7,3,6.7,3,13.4,1
2015/7/17 0:57,6.9,2,6.9,3,14.7,1
2015/7/17 0:58,7.1,2,7.1,3,13.2,3
2015/7/17 0:59,7.1,2,7.1,3,11.6,3
2015/7/17 1:00,7.3,2,7.4,3,12.3,3
2015/7/17 1:01,7.6,2,7.6,2,16.2,3
2015/7/17 1:02,7.6,2,7.6,2,12.4,3
2015/7/17 1:03,7.4,2,7.5,2,10.9,3
2015/7/17 1:04,7.6,2,7.6,2,10.5,3
2015/7/17 1:05,7.5,2,7.6,2,11.5,3
2015/7/17 1:06,7.4,2,7.5,2,12.2,2
2015/7/17 1:07,7.2,2,7.4,2,13.5,2
2015/7/17 1:08,7.4,2,7.4,2,14.4,4
2015/7/17 1:09,7.7,2,7.7,2,17.1,3
2015/7/17 1:10,8.1,2,8.1,2,19.5,3
2015/7/17 1:11,8.2,2,8.2,2,16.6,3
2015/7/17 1:12,7.9,2,8.2,2,10.5,3
2015/7/17 1:13,8.2,2,8.2,2,13.8,3
2015/7/17 1:14,8.2,2,8.2,2,12.6,2
2015/7/17 1:15,8.4,2,8.5,2,13.9,1
2015/7/17 1:16,8.5,2,8.5,2,13.1,3
2015/7/17 1:17,8.6,2,8.6,2,12.2,4
2015/7/17 1:18,8.6,2,8.8,2,15.8,3
2015/7/17 1:19,8.5,3,8.7,2,13.2,3
2015/7/17 1:20,8.2,3,8.5,2,13.9,3
2015/7/17 1:21,8,2,8.1,2,13.1,3
2015/7/17 1:22,8.1,2,8.2,2,12.7,4
2015/7/17 1:23,8,2,8.2,2,12.3,2
2015/7/17 1:24,7.9,2,8,2,9.3,3
2015/7/17 1:25,7.7,2,7.9,2,9.8,3
2015/7/17 1:26,7.6,3,7.8,2,11.9,2
2015/7/17 1:27,7.4,3,7.6,2,10.8,3
2015/7/17 1:28,7.2,2,7.4,2,13.3,3
2015/7/17 1:29,7.3,3,7.3,3,9.8,4
2015/7/17 1:30,7,3,7.3,2,9.4,3
2015/7/17 1:31,6.9,3,7,2,13.1,3
2015/7/17 1:32,6.7,3,6.9,2,12.7,4
2015/7/17 1:33,6.7,3,6.7,2,14.3,2
2015/7/17 1:34,7.1,3,7.1,2,14.7,2
2015/7/17 1:35,7.4,3,7.4,3,15.7,3
2015/7/17 1:36,7.5,2,7.5,3,11.6,4
2015/7/17 1:37,7.5,2,7.6,2,14.8,3
2015/7/17 1:38,7.7,2,7.7,2,16.7,2
2015/7/17 1:39,7.7,2,7.8,2,13,3
2015/7/17 1:40,8,2,8,2,14.9,3
2015/7/17 1:41,8.2,2,8.3,2,14.5,2
2015/7/17 1:42,8.4,2,8.4,2,12.3,3
2015/7/17 1:43,8.1,2,8.4,2,11.9,4
2015/7/17 1:44,7.9,2,8.1,2,12.6,2
2015/7/17 1:45,7.7,2,7.9,2,10.7,1
2015/7/17 1:46,7.6,2,7.7,2,11.8,1
2015/7/17 1:47,7.5,2,7.6,2,10.1,2
2015/7/17 1:48,7.4,2,7.6,2,12.5,2
2015/7/17 1:49,7.3,2,7.3,2,12.6,2
2015/7/17 1:50,7.1,2,7.3,2,10.9,2
2015/7/17 1:51,7.3,2,7.3,2,16,5
2015/7/17 1:52,7.7,2,7.7,2,14.2,3
2015/7/17 1:53,8,2,8,2,20.7,3
2015/7/17 1:54,8.4,2,8.4,2,19.7,4
2015/7/17 1:55,8.5,2,8.6,2,15.2,3
2015/7/17 1:56,8.7,3,8.7,3,12.3,3
2015/7/17 1:57,8.8,2,8.9,3,14.8,1
2015/7/17 1:58,9,3,9,3,14.5,3
2015/7/17 1:59,8.9,3,9,3,15.2,2
2015/7/17 2:00,9.1,3,9.1,3,15.1,2
2015/7/17 2:01,9.1,3,9.1,3,16.2,3
2015/7/17 2:02,8.9,3,9,3,12.7,3
2015/7/17 2:03,8.8,3,8.9,3,14.9,3
2015/7/17 2:04,8.4,3,8.7,3,14.4,3
2015/7/17 2:05,8.2,3,8.3,3,11,3
2015/7/17 2:06,8,3,8.2,3,10.7,3
2015/7/17 2:07,7.9,3,8,3,10.8,3
2015/7/17 2:08,7.8,3,7.9,3,15.2,2
2015/7/17 2:09,8.1,3,8.2,3,15.2,3
2015/7/17 2:10,8,3,8.1,3,16.3,3
2015/7/17 2:11,7.6,2,8.1,3,15.3,3
2015/7/17 2:12,7.4,2,7.8,3,15.8,3
2015/7/17 2:13,7.4,2,7.6,3,13,2
2015/7/17 2:14,7.4,2,7.4,3,16,1
2015/7/17 2:15,7.7,2,7.7,3,13.5,3
2015/7/17 2:16,7.6,2,7.7,3,12.1,2
2015/7/17 2:17,7.5,2,7.6,3,10.8,3
2015/7/17 2:18,7.4,2,7.6,3,11.1,3
2015/7/17 2:19,7,2,7.3,3,10,2
2015/7/17 2:20,7,2,7.1,3,14.3,2
2015/7/17 2:21,7.1,2,7.3,2,15.6,2
2015/7/17 2:22,7.7,2,7.7,2,21.9,4
2015/7/17 2:23,7.8,2,7.9,2,13.9,3
2015/7/17 2:24,8.2,2,8.2,2,18.6,3
2015/7/17 2:25,8.2,2,8.3,2,14.9,3
2015/7/17 2:26,8.5,2,8.6,2,13.6,2
2015/7/17 2:27,8.9,3,8.9,2,13.1,4
2015/7/17 2:28,9,3,9,3,15.4,4
2015/7/17 2:29,9.3,3,9.3,3,13.2,3
2015/7/17 2:30,9.3,3,9.4,3,12.6,3
2015/7/17 2:31,9.2,3,9.3,3,14.5,4
2015/7/17 2:32,8.8,3,9.2,3,14.8,2
2015/7/17 2:33,8.6,3,8.8,3,11.7,2
2015/7/17 2:34,8.6,3,8.7,3,18.3,3
2015/7/17 2:35,8.5,3,8.6,3,13,3
2015/7/17 2:36,8.5,3,8.6,3,12.4,3
2015/7/17 2:37,8.6,3,8.6,3,15.1,4
2015/7/17 2:38,8.6,3,8.7,3,15,3
2015/7/17 2:39,8.4,3,8.5,3,12.7,3
2015/7/17 2:40,8.4,3,8.5,3,13.9,3
2015/7/17 2:41,8.3,2,8.4,3,14,3
2015/7/17 2:42,8.2,3,8.4,3,15,1
2015/7/17 2:43,8.1,3,8.2,3,12.7,3
2015/7/17 2:44,7.7,3,8.1,3,11.4,3
2015/7/17 2:45,7.8,3,7.9,3,16.6,3
2015/7/17 2:46,7.7,3,7.8,3,11.5,2
2015/7/17 2:47,7.4,3,7.7,3,11,3
2015/7/17 2:48,7.4,3,7.4,3,17.5,3
2015/7/17 2:49,7.6,3,7.6,3,15.7,2
2015/7/17 2:50,7.4,3,7.6,3,15,3
2015/7/17 2:51,7.7,3,7.7,3,16.8,3
2015/7/17 2:52,8,3,8,3,14.7,3
2015/7/17 2:53,8.1,3,8.1,3,12.4,2
2015/7/17 2:54,8.3,3,8.3,3,12.2,3
2015/7/17 2:55,7.7,3,8.2,3,9.7,3
2015/7/17 2:56,7.6,3,7.7,3,12.2,3
2015/7/17 2:57,7.7,3,7.7,3,12.8,5
2015/7/17 2:58,7.8,3,7.9,3,17.2,2
2015/7/17 2:59,7.9,3,7.9,3,14.9,2
2015/7/17 3:00,8.2,3,8.2,3,13.6,3
2015/7/17 3:01,7.9,3,8.2,3,11.4,3
2015/7/17 3:02,7.7,3,8,3,11.9,2
2015/7/17 3:03,8,3,8,3,15.7,4
2015/7/17 3:04,7.8,3,8,3,12.2,3
2015/7/17 3:05,8.1,3,8.1,3,11.8,2
2015/7/17 3:06,8.1,3,8.1,3,11.4,3
2015/7/17 3:07,8.2,3,8.3,3,12.5,3
2015/7/17 3:08,8,3,8.2,3,10.8,3
2015/7/17 3:09,7.9,3,8,3,11.9,3
2015/7/17 3:10,7.6,3,7.9,3,11.3,3
2015/7/17 3:11,7.6,3,7.7,3,11,2
2015/7/17 3:12,7.6,3,7.6,3,11.4,1
2015/7/17 3:13,7.2,3,7.5,3,10.2,3
2015/7/17 3:14,7.4,3,7.4,3,10.7,3
2015/7/17 3:15,7.4,3,7.5,3,11.5,3
2015/7/17 3:16,7.3,3,7.4,3,14.1,1
2015/7/17 3:17,7.3,2,7.4,3,11.9,3
2015/7/17 3:18,7.2,2,7.3,3,11.9,16
2015/7/17 3:19,7.3,2,7.3,3,12.7,2
2015/7/17 3:20,7.5,2,7.5,3,13.4,2
2015/7/17 3:21,7.5,2,7.6,3,13.3,2
2015/7/17 3:22,7.5,2,7.5,2,10.3,2
2015/7/17 3:23,7.6,2,7.6,2,15.2,3
2015/7/17 3:24,7.5,2,7.7,2,14.5,3
2015/7/17 3:25,7.8,2,7.8,2,20.6,2
2015/7/17 3:26,8.2,3,8.2,3,15.7,3
2015/7/17 3:27,8.3,3,8.3,3,13.6,3
2015/7/17 3:28,8.4,3,8.4,3,12.5,2
2015/7/17 3:29,8.1,3,8.4,3,12.8,2
2015/7/17 3:30,7.9,3,8.1,3,9.8,3
2015/7/17 3:31,7.8,3,7.8,3,12.6,4
2015/7/17 3:32,8,3,8.1,3,15.4,3
2015/7/17 3:33,8,3,8.1,3,11.5,2
2015/7/17 3:34,8.1,3,8.1,3,12.6,2
2015/7/17 3:35,8,3,8.1,3,10.8,3
2015/7/17 3:36,7.6,3,7.9,3,11.1,2
2015/7/17 3:37,7.3,3,7.5,3,10.7,3
2015/7/17 3:38,7.5,2,7.6,3,14.3,2
2015/7/17 3:39,7.5,2,7.6,3,13.2,2
2015/7/17 3:40,7.8,2,7.8,3,14.4,3
2015/7/17 3:41,7.8,2,7.9,3,15.3,2
2015/7/17 3:42,7.8,2,7.8,3,16.9,3
2015/7/17 3:43,7.9,2,7.9,3,13.3,3
2015/7/17 3:44,7.8,2,7.9,3,15,3
2015/7/17 3:45,7.8,2,7.9,3,13.4,3
2015/7/17 3:46,7.9,2,7.9,2,11.9,4
2015/7/17 3:47,8.1,2,8.1,2,14.1,2
2015/7/17 3:48,7.9,2,8.1,2,11.1,3
2015/7/17 3:49,7.8,2,7.9,2,10.5,3
2015/7/17 3:50,7.8,2,7.8,2,15.3,3
2015/7/17 3:51,8.1,2,8.1,2,15.8,2
2015/7/17 3:52,8,2,8.1,2,14.2,2
2015/7/17 3:53,7.9,2,8,2,10.9,3
2015/7/17 3:54,8,2,8,2,12.8,3
2015/7/17 3:55,7.9,3,8,2,12.2,3
2015/7/17 3:56,8,3,8,2,13.4,3
2015/7/17 3:57,8,3,8.1,2,14.4,3
2015/7/17 3:58,7.8,3,8,2,11.5,3
2015/7/17 3:59,7.8,3,7.8,2,13.1,1
2015/7/17 4:00,8,3,8,2,17.4,3
2015/7/17 4:01,8.2,3,8.2,3,19,3
2015/7/17 4:02,8.4,3,8.4,3,17,1
2015/7/17 4:03,8.5,3,8.5,3,14.4,2
2015/7/17 4:04,8.4,2,8.6,2,16.5,2
2015/7/17 4:05,8.6,2,8.6,2,13,2
2015/7/17 4:06,8.6,2,8.6,2,14.5,3
2015/7/17 4:07,8.5,2,8.6,2,12.5,3
2015/7/17 4:08,8.6,2,8.6,2,14.3,3
2015/7/17 4:09,9,2,9,2,15.1,4
2015/7/17 4:10,8.8,2,9,2,14.9,3
2015/7/17 4:11,8.5,2,8.8,2,14.5,3
2015/7/17 4:12,8.4,2,8.5,2,16.5,4
2015/7/17 4:13,8.3,2,8.5,2,14.9,5
2015/7/17 4:14,8.3,3,8.3,2,14.7,3
2015/7/17 4:15,8.1,3,8.3,2,14.7,3
2015/7/17 4:16,8.2,3,8.3,2,16.1,2
2015/7/17 4:17,8.4,3,8.4,2,13.2,3
2015/7/17 4:18,8.6,3,8.7,2,15.2,2
2015/7/17 4:19,8.5,3,8.6,2,14.1,2
2015/7/17 4:20,8.3,2,8.4,2,13.4,3
2015/7/17 4:21,8,2,8.3,3,11.7,3
2015/7/17 4:22,7.8,3,8.1,3,12.7,3
2015/7/17 4:23,8.2,2,8.2,3,19.2,2
2015/7/17 4:24,8.4,2,8.4,3,17.4,2
2015/7/17 4:25,8.6,2,8.6,3,13.5,2
2015/7/17 4:26,8.3,2,8.5,3,15.6,3
2015/7/17 4:27,8.2,2,8.3,3,13.6,3
2015/7/17 4:28,8.2,2,8.2,3,13.2,3
2015/7/17 4:29,8.1,2,8.2,2,13.1,3
2015/7/17 4:30,8.2,2,8.3,2,13.5,3
2015/7/17 4:31,8.2,2,8.2,2,13.4,1
2015/7/17 4:32,8.3,2,8.3,2,16.3,3
2015/7/17 4:33,8.2,2,8.3,2,14.8,3
2015/7/17 4:34,8,2,8.3,2,14,3
2015/7/17 4:35,8.1,2,8.1,2,15.6,3
2015/7/17 4:36,8.4,2,8.4,2,13.8,3
2015/7/17 4:37,8.2,2,8.4,2,12.4,3
2015/7/17 4:38,8,2,8.1,2,15.2,3
2015/7/17 4:39,8.1,2,8.2,2,12.3,2
2015/7/17 4:40,8.1,2,8.1,2,13.9,3
2015/7/17 4:41,8.1,2,8.2,2,12.4,2
2015/7/17 4:42,8.1,2,8.1,2,16,4
2015/7/17 4:43,8.1,2,8.2,2,14.3,3
2015/7/17 4:44,7.9,3,8,2,11.5,3
2015/7/17 4:45,7.7,3,8,2,12.3,2
2015/7/17 4:46,7.4,3,7.7,2,12.3,3
2015/7/17 4:47,7.8,3,7.8,2,14,3
2015/7/17 4:48,7.9,3,7.9,2,11.9,2
2015/7/17 4:49,7.9,3,7.9,2,11.6,3
2015/7/17 4:50,8,3,8,2,15.4,3
2015/7/17 4:51,8.2,3,8.2,2,12.5,3
2015/7/17 4:52,8.2,3,8.5,3,16.1,2
2015/7/17 4:53,8.3,3,8.3,3,16.9,2
2015/7/17 4:54,8.5,3,8.6,3,14.9,3
2015/7/17 4:55,8.7,3,8.7,3,11,5
2015/7/17 4:56,8.9,3,9,3,11.7,3
2015/7/17 4:57,8.7,3,9,3,10.9,3
2015/7/17 4:58,8.6,3,8.7,3,12.5,4
2015/7/17 4:59,8.6,3,8.7,3,13,3
2015/7/17 5:00,8.5,3,8.7,3,12.2,2
2015/7/17 5:01,8,3,8.5,3,7.4,3
2015/7/17 5:02,7.8,3,8,3,9.9,3
2015/7/17 5:03,7.5,3,7.7,3,13.2,3
2015/7/17 5:04,7.4,3,7.5,3,12.5,3
2015/7/17 5:05,7.3,3,7.5,3,13.5,5
2015/7/17 5:06,7.5,3,7.5,3,16,3
2015/7/17 5:07,7.4,3,7.5,3,11.5,2
2015/7/17 5:08,7.2,3,7.4,3,10.1,3
2015/7/17 5:09,7,3,7.2,3,11.9,3
2015/7/17 5:10,6.9,3,7,3,12.3,2
2015/7/17 5:11,7.1,3,7.1,3,11,3
2015/7/17 5:12,7.4,3,7.4,3,12.5,3
2015/7/17 5:13,7.2,3,7.4,3,10.9,4
2015/7/17 5:14,7.1,3,7.2,3,13.5,3
2015/7/17 5:15,7.4,3,7.4,3,15.8,3
2015/7/17 5:16,7.1,3,7.3,3,13.2,3
2015/7/17 5:17,7.2,3,7.2,3,13.8,4
2015/7/17 5:18,7.5,3,7.5,3,14.1,3
2015/7/17 5:19,7.5,3,7.5,3,11.3,3
2015/7/17 5:20,7.7,3,7.7,3,14.9,3
2015/7/17 5:21,8,3,8,3,14.8,4
2015/7/17 5:22,7.8,3,8,3,10.7,2
2015/7/17 5:23,7.9,3,8,3,9,3
2015/7/17 5:24,7.8,3,7.9,3,10.8,3
2015/7/17 5:25,7.6,3,7.8,3,11.7,3
2015/7/17 5:26,7.7,3,7.7,3,12.7,3
2015/7/17 5:27,7.5,3,7.7,3,12.3,2
2015/7/17 5:28,7.4,3,7.5,3,13.5,3
2015/7/17 5:29,7.5,3,7.6,3,15.9,3
2015/7/17 5:30,7.4,3,7.7,3,14,4
2015/7/17 5:31,7.1,3,7.5,3,10.8,4
2015/7/17 5:32,7.3,3,7.3,3,15.2,3
2015/7/17 5:33,7.2,3,7.3,3,9.8,3
2015/7/17 5:34,7.3,3,7.3,3,12.6,3
2015/7/17 5:35,7.4,3,7.4,3,12.1,4
2015/7/17 5:36,7.1,3,7.3,3,9.4,3
2015/7/17 5:37,7.1,3,7.2,3,8.4,4
2015/7/17 5:38,6.6,3,7.1,3,5.5,4
2015/7/17 5:39,6.5,3,6.7,3,12.4,5
2015/7/17 5:40,6.3,3,6.5,3,8.4,3
2015/7/17 5:41,6,3,6.2,3,6.2,4
2015/7/17 5:42,5.6,4,6,3,7,2
2015/7/17 5:43,5.4,4,5.6,3,9.7,4
2015/7/17 5:44,5.4,4,5.5,3,10.2,3
2015/7/17 5:45,5.3,4,5.3,3,10.7,5
2015/7/17 5:46,5.4,4,5.4,3,7.9,5
2015/7/17 5:47,5.2,4,5.3,3,6.3,3
2015/7/17 5:48,5.3,4,5.3,3,7,3
2015/7/17 5:49,5.1,4,5.3,3,9,5
2015/7/17 5:50,5.1,4,5.1,3,8.4,5
2015/7/17 5:51,5.2,4,5.2,3,6.8,4
2015/7/17 5:52,5.2,4,5.2,4,6.5,3
2015/7/17 5:53,5.3,4,5.3,4,7.8,4
2015/7/17 5:54,5.1,4,5.3,4,6.7,4
2015/7/17 5:55,4.7,4,5.1,4,6.7,3
2015/7/17 5:56,4.5,3,4.7,4,8.7,3
2015/7/17 5:57,4.6,3,4.6,4,6.5,4
2015/7/17 5:58,4.7,3,4.7,4,9,4
2015/7/17 5:59,4.8,3,4.8,4,10.1,3
2015/7/17 6:00,5,3,5,4,10.9,3
2015/7/17 6:01,5.1,3,5.1,4,9.3,4
2015/7/17 6:02,5.1,3,5.2,4,9.5,5
2015/7/17 6:03,5.2,3,5.2,4,7.2,3
2015/7/17 6:04,5.3,3,5.3,3,9.4,2
2015/7/17 6:05,5.7,3,5.7,3,12.7,3
2015/7/17 6:06,5.9,3,5.9,3,12.3,3
2015/7/17 6:07,6.3,3,6.3,3,17.9,5
2015/7/17 6:08,6.9,4,6.9,4,17,5
2015/7/17 6:09,7.1,4,7.2,4,14.9,4
2015/7/17 6:10,7.4,4,7.4,4,14.9,6
2015/7/17 6:11,7.6,4,7.7,4,15.4,5
2015/7/17 6:12,7.8,4,7.8,4,13.3,5
2015/7/17 6:13,8.1,4,8.1,4,13.1,5
2015/7/17 6:14,8.6,4,8.6,4,15.1,5
2015/7/17 6:15,8.5,4,8.6,4,11.3,4
2015/7/17 6:16,8.8,4,8.8,4,13.9,2
2015/7/17 6:17,8.7,4,8.9,4,13.4,3
2015/7/17 6:18,8.5,5,8.7,4,14.2,5
2015/7/17 6:19,8.1,5,8.4,4,7.2,5
2015/7/17 6:20,8,4,8.1,4,14.7,3
2015/7/17 6:21,8.1,4,8.1,4,15.1,5
2015/7/17 6:22,8,4,8.1,4,11.5,5
2015/7/17 6:23,7.8,4,8,4,13.1,3
2015/7/17 6:24,7.4,4,7.8,4,11.9,5
2015/7/17 6:25,7.4,5,7.4,4,11.9,5
2015/7/17 6:26,7.2,5,7.4,4,10.9,4
2015/7/17 6:27,7.4,5,7.4,4,16.5,4
2015/7/17 6:28,7.4,5,7.4,5,14.7,6
2015/7/17 6:29,7.6,5,7.6,5,12.1,5
2015/7/17 6:30,7.5,5,7.5,4,13,5
2015/7/17 6:31,7.5,5,7.6,4,14.2,6
2015/7/17 6:32,7.6,5,7.7,4,11.1,5
2015/7/17 6:33,8,5,8,5,13.5,5
2015/7/17 6:34,8.3,5,8.3,5,14.4,4
2015/7/17 6:35,8.3,5,8.3,5,11.3,6
2015/7/17 6:36,8.4,5,8.5,5,11.5,4
2015/7/17 6:37,8.1,5,8.3,5,11.8,4
2015/7/17 6:38,7.7,5,8,5,10,5
2015/7/17 6:39,7.6,5,7.7,5,12.7,7
2015/7/17 6:40,7.6,5,7.7,5,14.3,5
2015/7/17 6:41,7.7,5,7.7,5,14.8,2
2015/7/17 6:42,7.6,5,7.8,5,14.3,4
2015/7/17 6:43,7.6,5,7.6,5,13.4,6
2015/7/17 6:44,7.2,5,7.5,5,8.9,6
2015/7/17 6:45,7.2,5,7.3,5,10,5
2015/7/17 6:46,7.1,5,7.2,5,10.2,5
2015/7/17 6:47,6.9,5,7.1,5,7.1,4
2015/7/17 6:48,6.8,4,6.9,5,9.1,5
2015/7/17 6:49,6.9,4,7,5,12.6,4
2015/7/17 6:50,7.1,4,7.1,5,14.9,6
2015/7/17 6:51,6.5,4,6.9,5,9.8,4
2015/7/17 6:52,6.6,4,6.6,5,10.9,5
2015/7/17 6:53,6.3,4,6.6,5,12.1,5
2015/7/17 6:54,6.5,4,6.5,5,11.5,5
2015/7/17 6:55,6.4,5,6.5,5,12.4,5
2015/7/17 6:56,6.3,5,6.4,5,8.2,3
2015/7/17 6:57,6.3,5,6.3,4,6.8,5
2015/7/17 6:58,6.3,5,6.3,4,8.6,4
2015/7/17 6:59,6.2,5,6.3,4,8.3,5
2015/7/17 7:00,5.7,5,6.1,4,8.2,6
2015/7/17 7:01,5.5,5,5.7,4,6.8,5
2015/7/17 7:02,5.1,5,5.5,4,5.8,5
2015/7/17 7:03,4.9,5,5,4,6.4,5
2015/7/17 7:04,4.6,5,4.8,4,7.6,5
2015/7/17 7:05,4.4,5,4.5,5,5.1,6
2015/7/17 7:06,4.4,5,4.4,5,9,5
2015/7/17 7:07,4.7,5,4.7,5,10.2,6
2015/7/17 7:08,4.6,5,4.6,5,8.1,4
2015/7/17 7:09,4.6,5,4.6,5,9.7,4
2015/7/17 7:10,4.5,5,4.6,5,5.8,5
2015/7/17 7:11,4.5,5,4.5,5,6.1,4
2015/7/17 7:12,4.6,5,4.7,5,9.1,3
2015/7/17 7:13,4.8,5,4.8,5,8.5,5
2015/7/17 7:14,4.9,5,4.9,5,7.4,5
2015/7/17 7:15,4.9,5,4.9,5,7.1,5
2015/7/17 7:16,4.6,5,4.8,5,6,6
2015/7/17 7:17,4.5,5,4.6,5,8.3,5
2015/7/17 7:18,4.5,5,4.5,5,9.9,4
2015/7/17 7:19,4.5,4,4.5,5,9.9,4
2015/7/17 7:20,4.6,4,4.6,5,6.2,4
2015/7/17 7:21,4.7,4,4.7,5,7.9,5
2015/7/17 7:22,4.5,4,4.6,5,6.5,4
2015/7/17 7:23,4.3,4,4.5,5,5.8,4
2015/7/17 7:24,4.1,4,4.3,5,5.8,5
2015/7/17 7:25,4.1,4,4.2,5,6.5,6
2015/7/17 7:26,4.2,5,4.2,4,6.5,5
2015/7/17 7:27,4,5,4.2,4,4.8,4
2015/7/17 7:28,3.8,5,3.9,4,5.4,6
2015/7/17 7:29,3.6,5,3.8,4,6.3,3
2015/7/17 7:30,3.8,5,3.8,4,7.9,5
2015/7/17 7:31,3.8,5,3.9,4,7.4,6
2015/7/17 7:32,3.9,5,3.9,4,7,6
2015/7/17 7:33,3.8,5,3.9,4,4.8,3
2015/7/17 7:34,4,5,4,4,7.7,4
2015/7/17 7:35,4,5,4,4,7.4,4
2015/7/17 7:36,4,5,4,5,6.7,3
2015/7/17 7:37,4.1,5,4.1,5,6.9,3
2015/7/17 7:38,4.1,5,4.1,5,5.2,5
2015/7/17 7:39,4,5,4.1,5,5.1,4
2015/7/17 7:40,3.8,5,3.9,5,8.3,5
2015/7/17 7:41,3.9,5,3.9,5,7.9,5
2015/7/17 7:42,3.9,5,3.9,5,7.1,5
2015/7/17 7:43,4.1,5,4.1,5,8.4,6
2015/7/17 7:44,4.1,5,4.1,5,7.8,4
2015/7/17 7:45,4.2,4,4.2,5,7.6,4
2015/7/17 7:46,4.1,4,4.2,5,5.6,3
2015/7/17 7:47,4,4,4.1,5,5.8,4
2015/7/17 7:48,4.1,4,4.2,5,5.7,3
2015/7/17 7:49,4.1,4,4.1,5,6.5,5
2015/7/17 7:50,4,4,4.1,5,3.5,5
2015/7/17 7:51,3.7,4,3.9,5,4.5,5
2015/7/17 7:52,3.6,4,3.7,5,6.7,5
2015/7/17 7:53,3.7,4,3.7,5,9.4,4
2015/7/17 7:54,3.8,4,3.9,5,9.1,5
2015/7/17 7:55,3.8,4,3.8,4,7.1,5
2015/7/17 7:56,3.8,4,3.8,4,5.6,5
2015/7/17 7:57,3.9,4,3.9,4,6.5,4
2015/7/17 7:58,3.8,5,3.9,4,5.4,5
2015/7/17 7:59,3.9,4,3.9,4,6.8,6
2015/7/17 8:00,4.1,4,4.1,4,6.4,5
2015/7/17 8:01,4.4,4,4.4,4,8.4,4
2015/7/17 8:02,4.5,4,4.5,4,6.9,4
2015/7/17 8:03,4.6,4,4.6,4,8.5,6
2015/7/17 8:04,4.3,4,4.5,4,7.6,6
2015/7/17 8:05,4.3,5,4.3,4,6.8,5
2015/7/17 8:06,4.3,5,4.3,4,4.7,5
2015/7/17 8:07,4.2,5,4.3,4,5.6,6
2015/7/17 8:08,4.1,5,4.2,4,4.7,5
2015/7/17 8:09,4,5,4.1,4,6.4,2
2015/7/17 8:10,4.1,5,4.1,4,7.4,3
2015/7/17 8:11,4,5,4.1,4,7.5,4
2015/7/17 8:12,3.9,5,4,4,5.8,6
2015/7/17 8:13,3.7,5,3.8,4,7.8,4
2015/7/17 8:14,3.8,5,3.9,5,8.3,5
2015/7/17 8:15,3.8,5,3.9,5,7.4,5
2015/7/17 8:16,3.8,5,3.8,5,5.5,3
2015/7/17 8:17,3.8,4,3.8,5,6.7,4
2015/7/17 8:18,4,4,4,5,6.4,5
2015/7/17 8:19,4.1,4,4.1,5,6.1,6
2015/7/17 8:20,4.1,4,4.2,4,7.4,4
2015/7/17 8:21,4.1,4,4.2,4,7,4
2015/7/17 8:22,4.2,4,4.2,4,5,4
2015/7/17 8:23,4,4,4.2,4,5.2,4
2015/7/17 8:24,4,5,4,4,6.9,5
2015/7/17 8:25,4.1,4,4.1,4,7.4,5
2015/7/17 8:26,4.2,4,4.2,4,6.3,6
2015/7/17 8:27,4.2,5,4.2,4,7.1,3
2015/7/17 8:28,4.1,4,4.2,4,7,3
2015/7/17 8:29,4.2,4,4.2,4,6.1,5
2015/7/17 8:30,4.1,5,4.2,5,5.1,4
2015/7/17 8:31,3.8,5,4,4,3.9,5
2015/7/17 8:32,3.8,4,3.8,4,6.5,4
2015/7/17 8:33,3.9,5,3.9,4,5.6,4
2015/7/17 8:34,3.8,4,3.9,4,7.9,4
2015/7/17 8:35,3.8,4,3.8,4,6.8,4
2015/7/17 8:36,3.8,4,3.8,4,6.5,4
2015/7/17 8:37,3.8,4,3.8,5,6.4,5
2015/7/17 8:38,3.7,4,3.8,4,6.7,5
2015/7/17 8:39,3.7,4,3.7,4,7.4,5
2015/7/17 8:40,3.7,4,3.8,5,5.1,5
2015/7/17 8:41,3.8,4,3.8,5,5.2,4
2015/7/17 8:42,3.8,4,3.9,5,5.8,4
2015/7/17 8:43,3.7,4,3.8,5,5.5,4
2015/7/17 8:44,3.8,4,3.8,4,7.7,5
2015/7/17 8:45,3.8,4,3.9,4,6.4,5
2015/7/17 8:46,3.8,4,3.9,4,6,4
2015/7/17 8:47,3.7,4,3.9,4,6.5,5
2015/7/17 8:48,3.8,4,3.8,4,5.1,3
2015/7/17 8:49,3.9,4,3.9,4,7.8,5
2015/7/17 8:50,3.8,5,3.9,4,5.2,4
2015/7/17 8:51,3.7,5,3.8,4,4.1,3
2015/7/17 8:52,3.7,5,3.7,4,4.4,4
2015/7/17 8:53,3.8,5,3.8,4,6.8,5
2015/7/17 8:54,3.7,5,3.8,4,5.5,5
2015/7/17 8:55,3.6,5,3.7,4,5.2,5
2015/7/17 8:56,3.5,5,3.6,4,5.4,5
2015/7/17 8:57,3.4,4,3.5,4,4.3,4
2015/7/17 8:58,3.6,4,3.6,4,8.6,5
2015/7/17 8:59,3.6,4,3.7,5,7.6,4
2015/7/17 9:00,3.6,4,3.6,5,5.1,3
2015/7/17 9:01,3.8,4,3.8,5,5.7,3
2015/7/17 9:02,4,4,4,4,9.1,4
2015/7/17 9:03,3.9,4,4,4,7.6,4
2015/7/17 9:04,4,4,4,4,6.5,6
2015/7/17 9:05,4,4,4,4,4.7,4
2015/7/17 9:06,4,4,4,4,4.9,4
2015/7/17 9:07,4.1,4,4.1,4,6.1,5
2015/7/17 9:08,3.8,4,4.1,4,4.7,3
2015/7/17 9:09,3.6,4,3.8,4,4.3,5
2015/7/17 9:10,3.7,4,3.7,4,5.6,4
2015/7/17 9:11,3.6,4,3.7,4,5.1,3
2015/7/17 9:12,3.4,4,3.6,4,3.7,4
2015/7/17 9:13,3.4,4,3.4,4,7.2,4
2015/7/17 9:14,3.4,4,3.4,4,6.5,4
2015/7/17 9:15,3.4,4,3.4,4,4.7,4
2015/7/17 9:16,3.4,4,3.4,4,6.3,6
2015/7/17 9:17,3.4,4,3.4,4,5.6,3
2015/7/17 9:18,3.6,4,3.6,4,8.3,5
2015/7/17 9:19,3.8,4,3.8,4,5.7,5
2015/7/17 9:20,3.7,4,3.7,4,4.8,5
2015/7/17 9:21,3.8,4,3.8,4,6,4
2015/7/17 9:22,3.8,4,3.8,4,4.8,6
2015/7/17 9:23,3.7,4,3.8,4,5.5,3
2015/7/17 9:24,3.6,4,3.7,4,5.7,4
2015/7/17 9:25,3.7,4,3.7,4,5.1,4
2015/7/17 9:26,3.6,4,3.7,4,5.4,5
2015/7/17 9:27,3.6,4,3.6,4,6.8,5
2015/7/17 9:28,3.5,4,3.7,4,5.6,2
2015/7/17 9:29,3.6,4,3.6,4,7.1,4
2015/7/17 9:30,3.6,4,3.6,4,5.4,4
2015/7/17 9:31,3.7,4,3.7,4,5.1,3
2015/7/17 9:32,3.8,4,3.8,4,6.1,5
2015/7/17 9:33,3.8,4,3.9,4,4.8,5
2015/7/17 9:34,3.8,5,3.8,4,5.6,4
2015/7/17 9:35,3.9,4,3.9,4,6,4
2015/7/17 9:36,3.9,5,3.9,4,4.8,4
2015/7/17 9:37,3.7,4,3.9,4,6,3
2015/7/17 9:38,3.7,4,3.7,4,5.5,6
2015/7/17 9:39,3.6,5,3.7,4,4.9,6
2015/7/17 9:40,3.6,5,3.6,4,5.4,4
2015/7/17 9:41,3.6,5,3.6,4,5.7,4
2015/7/17 9:42,3.5,5,3.6,4,5.8,5
2015/7/17 9:43,3.4,5,3.5,4,5,4
2015/7/17 9:44,3.4,5,3.5,4,4.1,5
2015/7/17 9:45,3.3,5,3.4,4,6,5
2015/7/17 9:46,3.4,4,3.4,4,6,4
2015/7/17 9:47,3.4,5,3.4,4,3.8,4
2015/7/17 9:48,3.4,4,3.4,5,5.7,5
2015/7/17 9:49,3.4,5,3.4,5,3.7,5
2015/7/17 9:50,3.3,5,3.4,5,3.8,5
2015/7/17 9:51,3,5,3.2,5,3,6
2015/7/17 9:52,2.9,5,3,5,3.2,5
2015/7/17 9:53,2.8,5,2.9,5,3.2,4
2015/7/17 9:54,2.8,5,2.8,5,4.5,5
2015/7/17 9:55,2.7,5,2.8,5,4.2,3
2015/7/17 9:56,2.7,5,2.7,5,4.3,5
2015/7/17 9:57,2.8,5,2.8,5,4.4,5
2015/7/17 9:58,2.7,5,2.8,4,4.5,4
2015/7/17 9:59,2.6,5,2.7,5,3.7,3
2015/7/17 10:00,2.6,5,2.6,5,3.9,4
2015/7/17 10:01,2.8,4,2.8,5,4.9,5
2015/7/17 10:02,2.8,4,2.8,5,4.4,4
2015/7/17 10:03,2.9,4,2.9,4,3.6,4
2015/7/17 10:04,2.8,4,2.9,4,4.5,5
2015/7/17 10:05,2.9,4,3,4,6.3,5
2015/7/17 10:06,2.9,5,3,4,3.8,6
2015/7/17 10:07,2.8,5,3,4,2.5,5
2015/7/17 10:08,2.7,5,2.7,4,4.3,4
2015/7/17 10:09,2.8,5,2.8,4,4.9,6
2015/7/17 10:10,2.9,5,2.9,4,5.7,4
2015/7/17 10:11,2.9,5,2.9,4,4.4,5
2015/7/17 10:12,2.9,5,2.9,4,4.2,4
2015/7/17 10:13,2.9,5,2.9,4,3.8,3
2015/7/17 10:14,2.9,5,3,4,5.6,5
2015/7/17 10:15,2.8,5,3,4,5,5
2015/7/17 10:16,2.8,5,2.8,5,5,5
2015/7/17 10:17,2.9,5,2.9,5,3.3,6
2015/7/17 10:18,3,5,3,5,5.2,5
2015/7/17 10:19,3,5,3.1,5,4.2,5
2015/7/17 10:20,2.8,5,3,5,4.7,5
2015/7/17 10:21,3,5,3,5,7.8,5
2015/7/17 10:22,3.1,5,3.1,5,6.9,6
2015/7/17 10:23,3.2,5,3.2,5,3.5,6
2015/7/17 10:24,3,5,3.2,5,2.9,5
2015/7/17 10:25,2.9,5,3,5,2.7,6
2015/7/17 10:26,2.8,5,2.9,5,2.4,5
2015/7/17 10:27,2.8,5,2.8,5,3.3,5
2015/7/17 10:28,2.8,5,2.8,5,5.8,6
2015/7/17 10:29,2.9,5,2.9,5,5.8,5
2015/7/17 10:30,2.9,5,3,5,4.1,6
2015/7/17 10:31,2.7,5,2.9,5,4.5,5
2015/7/17 10:32,2.7,5,2.7,5,5.4,6
2015/7/17 10:33,2.8,5,2.8,5,5.6,6
2015/7/17 10:34,2.9,5,2.9,5,3.3,5
2015/7/17 10:35,2.9,5,2.9,5,2.9,5
2015/7/17 10:36,3,5,3,5,3.3,6
2015/7/17 10:37,3.1,5,3.1,5,5.6,4
2015/7/17 10:38,3,5,3.1,5,4.9,3
2015/7/17 10:39,3,5,3,5,5,5
2015/7/17 10:40,2.9,5,3,5,3.5,3
2015/7/17 10:41,2.9,5,2.9,5,6.4,7
2015/7/17 10:42,2.9,5,2.9,5,5,5
2015/7/17 10:43,2.9,5,2.9,5,5.6,6
2015/7/17 10:44,3,5,3.1,5,6.2,7
2015/7/17 10:45,3,5,3,5,3.2,5
2015/7/17 10:46,3.1,5,3.1,5,3.5,5
2015/7/17 10:47,2.9,5,3.1,5,3.3,5
2015/7/17 10:48,3,5,3,5,4.7,5
2015/7/17 10:49,2.9,5,3,5,4.4,4
2015/7/17 10:50,3,5,3,5,3.8,5
2015/7/17 10:51,2.9,5,3,5,5.2,6
2015/7/17 10:52,2.9,5,2.9,5,5.4,5
2015/7/17 10:53,2.9,5,3,5,5.5,6
2015/7/17 10:54,2.9,5,2.9,5,6,7
2015/7/17 10:55,3.1,5,3.1,5,6.7,7
2015/7/17 10:56,3.1,5,3.1,5,4.7,6
2015/7/17 10:57,3.1,5,3.1,5,3.9,8
2015/7/17 10:58,3.1,6,3.1,5,4.4,6
2015/7/17 10:59,3.2,6,3.2,6,5.7,7
2015/7/17 11:00,3.4,6,3.4,6,7.1,6
2015/7/17 11:01,3.5,6,3.5,6,5,6
2015/7/17 11:02,3.4,6,3.5,6,5.7,6
2015/7/17 11:03,3.4,6,3.4,6,5.8,5
2015/7/17 11:04,3.2,6,3.4,6,3.9,7
2015/7/17 11:05,3.1,6,3.2,6,4.8,9
2015/7/17 11:06,2.9,6,3,6,2.2,8
2015/7/17 11:07,2.9,6,2.9,6,3.9,6
2015/7/17 11:08,2.8,6,2.9,6,3.6,6
2015/7/17 11:09,2.5,6,2.8,6,1.8,7
2015/7/17 11:10,2.2,7,2.5,6,1.8,9
2015/7/17 11:11,1.8,7,2.1,6,0.3,9
2015/7/17 11:12,1.6,7,1.8,6,1.5,8
2015/7/17 11:13,1.4,7,1.6,6,1.5,5
2015/7/17 11:14,1.4,6,1.4,6,3.9,5
2015/7/17 11:15,1.5,6,1.5,6,4.2,6
2015/7/17 11:16,1.6,6,1.6,6,3.9,5
2015/7/17 11:17,1.6,6,1.6,6,3.8,6
2015/7/17 11:18,1.7,6,1.7,6,4.2,6
2015/7/17 11:19,1.9,6,1.9,6,4.7,6
2015/7/17 11:20,2.1,6,2.1,7,4.7,6
2015/7/17 11:21,2.3,6,2.3,6,3.6,6
2015/7/17 11:22,2.5,6,2.5,6,3.5,6
2015/7/17 11:23,2.6,6,2.6,6,3.5,6
2015/7/17 11:24,2.5,6,2.7,6,3.2,5
2015/7/17 11:25,2.5,6,2.5,6,2.4,5
2015/7/17 11:26,2.4,6,2.4,6,2.6,5
2015/7/17 11:27,2.2,6,2.4,6,1.8,5
2015/7/17 11:28,2.1,6,2.2,6,2.5,6
2015/7/17 11:29,2,6,2.1,6,3,6
2015/7/17 11:30,1.8,6,1.9,6,2.5,6
2015/7/17 11:31,1.7,6,1.8,6,1.9,5
2015/7/17 11:32,1.6,6,1.7,6,1.8,5
2015/7/17 11:33,1.6,6,1.6,6,4.3,8
2015/7/17 11:34,1.5,6,1.6,6,4.2,8
2015/7/17 11:35,1.5,6,1.5,6,3.2,5
2015/7/17 11:36,1.5,6,1.5,6,3,8
2015/7/17 11:37,1.6,6,1.6,6,3.5,7
2015/7/17 11:38,1.6,6,1.7,6,2.5,8
2015/7/17 11:39,1.5,6,1.6,6,1.5,3